owner,sensor,date,latitude,longitude,air_temperature,qcFlag 
TABS,ioos:station:wmo:42043:1,2015-03-01T00:00:00Z,28.9818,-94.9186,13.3,11144222 
TABS,ioos:station:wmo:42043:1,2015-03-01T00:30:00Z,28.9818,-94.9186,13.2,11144222 
TABS,ioos:station:wmo:42043:1,2015-03-01T01:00:00Z,28.9818,-94.9186,13.3,11144222 
TABS,ioos:station:wmo:42043:1,2015-03-01T01:30:00Z,28.9818,-94.9186,13.4,11144222 
TABS,ioos:station:wmo:42043:1,2015-03-01T02:00:00Z,28.9818,-94.9186,13.4,11144222 
TABS,ioos:station:wmo:42043:1,2015-03-01T02:30:00Z,28.9818,-94.9186,13.5,11144222 
TABS,ioos:station:wmo:42043:1,2015-03-01T03:00:00Z,28.9818,-94.9186,13.6,11144222 
TABS,ioos:station:wmo:42043:1,2015-03-01T03:30:00Z,28.9818,-94.9186,13.6,11144222 
TABS,ioos:station:wmo:42043:1,2015-03-01T04:00:00Z,28.9818,-94.9186,13.7,11144222 
TABS,ioos:station:wmo:42043:1,2015-03-01T04:30:00Z,28.9818,-94.9186,13.7,11144222 
TABS,ioos:station:wmo:42043:1,2015-03-01T05:00:00Z,28.9818,-94.9186,13.7,11144222 
TABS,ioos:station:wmo:42043:1,2015-03-01T05:30:00Z,28.9818,-94.9186,13.8,11144222 
TABS,ioos:station:wmo:42043:1,2015-03-01T06:00:00Z,28.9818,-94.9186,13.8,11144222 
TABS,ioos:station:wmo:42043:1,2015-03-01T06:30:00Z,28.9818,-94.9186,13.9,11144222 
TABS,ioos:station:wmo:42043:1,2015-03-01T07:00:00Z,28.9818,-94.9186,14.0,11144222 
TABS,ioos:station:wmo:42043:1,2015-03-01T07:30:00Z,28.9818,-94.9186,13.9,11144222 
TABS,ioos:station:wmo:42043:1,2015-03-01T08:00:00Z,28.9818,-94.9186,13.9,11144222 
TABS,ioos:station:wmo:42043:1,2015-03-01T08:30:00Z,28.9818,-94.9186,13.8,11144222 
TABS,ioos:station:wmo:42043:1,2015-03-01T09:00:00Z,28.9818,-94.9186,13.8,11144222 
TABS,ioos:station:wmo:42043:1,2015-03-01T09:30:00Z,28.9818,-94.9186,13.7,11144222 
TABS,ioos:station:wmo:42043:1,2015-03-01T10:00:00Z,28.9818,-94.9186,13.8,11144222 
TABS,ioos:station:wmo:42043:1,2015-03-01T10:30:00Z,28.9818,-94.9186,13.9,11144222 
TABS,ioos:station:wmo:42043:1,2015-03-01T11:00:00Z,28.9818,-94.9186,13.7,11144222 
TABS,ioos:station:wmo:42043:1,2015-03-01T11:30:00Z,28.9818,-94.9186,13.9,11144222 
TABS,ioos:station:wmo:42043:1,2015-03-01T12:00:00Z,28.9818,-94.9186,14.7,11144222 
TABS,ioos:station:wmo:42043:1,2015-03-01T12:30:00Z,28.9818,-94.9186,14.8,11144222 
TABS,ioos:station:wmo:42043:1,2015-03-01T13:00:00Z,28.9818,-94.9186,14.5,11144222 
TABS,ioos:station:wmo:42043:1,2015-03-01T13:30:00Z,28.9818,-94.9186,15.5,11144222 
TABS,ioos:station:wmo:42043:1,2015-03-01T14:00:00Z,28.9818,-94.9186,15.9,11144222 
TABS,ioos:station:wmo:42043:1,2015-03-01T14:30:00Z,28.9818,-94.9186,15.1,11144222 
TABS,ioos:station:wmo:42043:1,2015-03-01T15:00:00Z,28.9818,-94.9186,14.5,11144222 
TABS,ioos:station:wmo:42043:1,2015-03-01T15:30:00Z,28.9818,-94.9186,15.3,11144222 
TABS,ioos:station:wmo:42043:1,2015-03-01T16:00:00Z,28.9818,-94.9186,16.3,11144222 
TABS,ioos:station:wmo:42043:1,2015-03-01T16:30:00Z,28.9818,-94.9186,15.3,11144222 
TABS,ioos:station:wmo:42043:1,2015-03-01T17:00:00Z,28.9818,-94.9186,15.6,11144222 
TABS,ioos:station:wmo:42043:1,2015-03-01T17:30:00Z,28.9818,-94.9186,15.1,11144222 
TABS,ioos:station:wmo:42043:1,2015-03-01T18:00:00Z,28.9818,-94.9186,15.5,11144222 
TABS,ioos:station:wmo:42043:1,2015-03-01T18:30:00Z,28.9818,-94.9186,15.7,11144222 
TABS,ioos:station:wmo:42043:1,2015-03-01T19:00:00Z,28.9818,-94.9186,16.2,11144222 
TABS,ioos:station:wmo:42043:1,2015-03-01T19:30:00Z,28.9818,-94.9186,15.9,11144222 
TABS,ioos:station:wmo:42043:1,2015-03-01T20:00:00Z,28.9818,-94.9186,15.7,11144222 
TABS,ioos:station:wmo:42043:1,2015-03-01T20:30:00Z,28.9818,-94.9186,16.3,11144222 
TABS,ioos:station:wmo:42043:1,2015-03-01T21:00:00Z,28.9818,-94.9186,17.0,11144222 
TABS,ioos:station:wmo:42043:1,2015-03-01T21:30:00Z,28.9818,-94.9186,17.2,11144222 
TABS,ioos:station:wmo:42043:1,2015-03-01T22:00:00Z,28.9818,-94.9186,17.0,11144222 
TABS,ioos:station:wmo:42043:1,2015-03-01T22:30:00Z,28.9818,-94.9186,16.6,11144222 
TABS,ioos:station:wmo:42043:1,2015-03-01T23:00:00Z,28.9818,-94.9186,16.8,11144222 
TABS,ioos:station:wmo:42043:1,2015-03-01T23:30:00Z,28.9818,-94.9186,15.9,11144222 
TABS,ioos:station:wmo:42043:1,2015-03-02T00:00:00Z,28.9818,-94.9186,16.1,11144222 
TABS,ioos:station:wmo:42043:1,2015-03-02T00:30:00Z,28.9818,-94.9186,16.0,11144222 
TABS,ioos:station:wmo:42043:1,2015-03-02T01:00:00Z,28.9818,-94.9186,15.6,11144222 
TABS,ioos:station:wmo:42043:1,2015-03-02T01:30:00Z,28.9818,-94.9186,15.6,11144222 
TABS,ioos:station:wmo:42043:1,2015-03-02T02:00:00Z,28.9818,-94.9186,15.4,11144222 
TABS,ioos:station:wmo:42043:1,2015-03-02T02:30:00Z,28.9818,-94.9186,15.3,11144222 
TABS,ioos:station:wmo:42043:1,2015-03-02T03:00:00Z,28.9818,-94.9186,14.9,11144222 
TABS,ioos:station:wmo:42043:1,2015-03-02T03:30:00Z,28.9818,-94.9186,14.6,11144222 
TABS,ioos:station:wmo:42043:1,2015-03-02T04:00:00Z,28.9818,-94.9186,13.7,11144222 
TABS,ioos:station:wmo:42043:1,2015-03-02T04:30:00Z,28.9818,-94.9186,13.1,11144222 
TABS,ioos:station:wmo:42043:1,2015-03-02T05:00:00Z,28.9818,-94.9186,13.0,11144222 
TABS,ioos:station:wmo:42043:1,2015-03-02T05:30:00Z,28.9818,-94.9186,12.7,11144222 
TABS,ioos:station:wmo:42043:1,2015-03-02T06:00:00Z,28.9818,-94.9186,12.4,11144222 
TABS,ioos:station:wmo:42043:1,2015-03-02T06:30:00Z,28.9818,-94.9186,12.1,11144222 
TABS,ioos:station:wmo:42043:1,2015-03-02T07:00:00Z,28.9818,-94.9186,11.8,11144222 
TABS,ioos:station:wmo:42043:1,2015-03-02T07:30:00Z,28.9818,-94.9186,11.8,11144222 
TABS,ioos:station:wmo:42043:1,2015-03-02T08:00:00Z,28.9818,-94.9186,11.8,11144222 
TABS,ioos:station:wmo:42043:1,2015-03-02T08:30:00Z,28.9818,-94.9186,11.7,11144222 
TABS,ioos:station:wmo:42043:1,2015-03-02T09:00:00Z,28.9818,-94.9186,11.6,11144222 
TABS,ioos:station:wmo:42043:1,2015-03-02T09:30:00Z,28.9818,-94.9186,11.6,11144222 
TABS,ioos:station:wmo:42043:1,2015-03-02T10:00:00Z,28.9818,-94.9186,11.5,11144222 
TABS,ioos:station:wmo:42043:1,2015-03-02T10:30:00Z,28.9818,-94.9186,11.3,11144222 
TABS,ioos:station:wmo:42043:1,2015-03-02T11:00:00Z,28.9818,-94.9186,11.2,11144222 
TABS,ioos:station:wmo:42043:1,2015-03-02T11:30:00Z,28.9818,-94.9186,11.2,11144222 
TABS,ioos:station:wmo:42043:1,2015-03-02T12:00:00Z,28.9818,-94.9186,11.2,11144222 
TABS,ioos:station:wmo:42043:1,2015-03-02T12:30:00Z,28.9818,-94.9186,10.9,11144222 
TABS,ioos:station:wmo:42043:1,2015-03-02T13:00:00Z,28.9818,-94.9186,10.9,11144222 
TABS,ioos:station:wmo:42043:1,2015-03-02T13:30:00Z,28.9818,-94.9186,10.8,11144222 
TABS,ioos:station:wmo:42043:1,2015-03-02T14:00:00Z,28.9818,-94.9186,10.7,11144222 
TABS,ioos:station:wmo:42043:1,2015-03-02T14:30:00Z,28.9818,-94.9186,10.5,11144222 
TABS,ioos:station:wmo:42043:1,2015-03-02T15:00:00Z,28.9818,-94.9186,10.3,11144222 
TABS,ioos:station:wmo:42043:1,2015-03-02T15:30:00Z,28.9818,-94.9186,10.3,11144222 
TABS,ioos:station:wmo:42043:1,2015-03-02T16:00:00Z,28.9818,-94.9186,10.2,11144222 
TABS,ioos:station:wmo:42043:1,2015-03-02T16:30:00Z,28.9818,-94.9186,10.2,11144222 
TABS,ioos:station:wmo:42043:1,2015-03-02T17:00:00Z,28.9818,-94.9186,10.2,11144222 
TABS,ioos:station:wmo:42043:1,2015-03-02T17:30:00Z,28.9818,-94.9186,10.4,11144222 
TABS,ioos:station:wmo:42043:1,2015-03-02T18:00:00Z,28.9818,-94.9186,10.3,11144222 
TABS,ioos:station:wmo:42043:1,2015-03-02T18:30:00Z,28.9818,-94.9186,10.2,11144222 
TABS,ioos:station:wmo:42043:1,2015-03-02T19:00:00Z,28.9818,-94.9186,10.4,11144222 
TABS,ioos:station:wmo:42043:1,2015-03-02T19:30:00Z,28.9818,-94.9186,10.6,11144222 
TABS,ioos:station:wmo:42043:1,2015-03-02T20:00:00Z,28.9818,-94.9186,10.8,11144222 
TABS,ioos:station:wmo:42043:1,2015-03-02T20:30:00Z,28.9818,-94.9186,11.0,11144222 
TABS,ioos:station:wmo:42043:1,2015-03-02T21:00:00Z,28.9818,-94.9186,11.2,11144222 
TABS,ioos:station:wmo:42043:1,2015-03-02T21:30:00Z,28.9818,-94.9186,11.3,11144222 
TABS,ioos:station:wmo:42043:1,2015-03-02T22:00:00Z,28.9818,-94.9186,11.5,11144222 
TABS,ioos:station:wmo:42043:1,2015-03-02T22:30:00Z,28.9818,-94.9186,11.5,11144222 
TABS,ioos:station:wmo:42043:1,2015-03-02T23:00:00Z,28.9818,-94.9186,11.7,11144222 
TABS,ioos:station:wmo:42043:1,2015-03-02T23:30:00Z,28.9818,-94.9186,12.0,11144222 
TABS,ioos:station:wmo:42043:1,2015-03-03T00:00:00Z,28.9818,-94.9186,11.9,11144222 
TABS,ioos:station:wmo:42043:1,2015-03-03T00:30:00Z,28.9818,-94.9186,12.1,11144222 
TABS,ioos:station:wmo:42043:1,2015-03-03T01:00:00Z,28.9818,-94.9186,12.6,11144222 
TABS,ioos:station:wmo:42043:1,2015-03-03T01:30:00Z,28.9818,-94.9186,12.7,11144222 
TABS,ioos:station:wmo:42043:1,2015-03-03T02:00:00Z,28.9818,-94.9186,12.7,11144222 
TABS,ioos:station:wmo:42043:1,2015-03-03T02:30:00Z,28.9818,-94.9186,12.7,11144222 
TABS,ioos:station:wmo:42043:1,2015-03-03T03:00:00Z,28.9818,-94.9186,13.1,11144222 
TABS,ioos:station:wmo:42043:1,2015-03-03T03:30:00Z,28.9818,-94.9186,13.2,11144222 
TABS,ioos:station:wmo:42043:1,2015-03-03T04:00:00Z,28.9818,-94.9186,13.3,11144222 
TABS,ioos:station:wmo:42043:1,2015-03-03T04:30:00Z,28.9818,-94.9186,13.4,11144222 
TABS,ioos:station:wmo:42043:1,2015-03-03T05:00:00Z,28.9818,-94.9186,13.4,11144222 
TABS,ioos:station:wmo:42043:1,2015-03-03T05:30:00Z,28.9818,-94.9186,13.5,11144222 
TABS,ioos:station:wmo:42043:1,2015-03-03T06:00:00Z,28.9818,-94.9186,13.5,11144222 
TABS,ioos:station:wmo:42043:1,2015-03-03T06:30:00Z,28.9818,-94.9186,13.4,11144222 
TABS,ioos:station:wmo:42043:1,2015-03-03T07:00:00Z,28.9818,-94.9186,13.5,11144222 
TABS,ioos:station:wmo:42043:1,2015-03-03T07:30:00Z,28.9818,-94.9186,13.5,11144222 
TABS,ioos:station:wmo:42043:1,2015-03-03T08:00:00Z,28.9818,-94.9186,13.4,11144222 
TABS,ioos:station:wmo:42043:1,2015-03-03T08:30:00Z,28.9818,-94.9186,13.6,11144222 
TABS,ioos:station:wmo:42043:1,2015-03-03T09:00:00Z,28.9818,-94.9186,13.7,11144222 
TABS,ioos:station:wmo:42043:1,2015-03-03T09:30:00Z,28.9818,-94.9186,13.8,11144222 
TABS,ioos:station:wmo:42043:1,2015-03-03T10:00:00Z,28.9818,-94.9186,13.7,11144222 
TABS,ioos:station:wmo:42043:1,2015-03-03T10:30:00Z,28.9818,-94.9186,13.7,11144222 
TABS,ioos:station:wmo:42043:1,2015-03-03T11:00:00Z,28.9818,-94.9186,13.2,11144222 
TABS,ioos:station:wmo:42043:1,2015-03-03T11:30:00Z,28.9818,-94.9186,13.0,11144222 
TABS,ioos:station:wmo:42043:1,2015-03-03T12:00:00Z,28.9818,-94.9186,13.2,11144222 
TABS,ioos:station:wmo:42043:1,2015-03-03T12:30:00Z,28.9818,-94.9186,14.1,11144222 
TABS,ioos:station:wmo:42043:1,2015-03-03T13:00:00Z,28.9818,-94.9186,14.6,11144222 
TABS,ioos:station:wmo:42043:1,2015-03-03T13:30:00Z,28.9818,-94.9186,14.7,11144222 
TABS,ioos:station:wmo:42043:1,2015-03-03T14:00:00Z,28.9818,-94.9186,14.9,11144222 
TABS,ioos:station:wmo:42043:1,2015-03-03T14:30:00Z,28.9818,-94.9186,15.0,11144222 
TABS,ioos:station:wmo:42043:1,2015-03-03T15:00:00Z,28.9818,-94.9186,15.0,11144222 
TABS,ioos:station:wmo:42043:1,2015-03-03T15:30:00Z,28.9818,-94.9186,15.3,11144222 
TABS,ioos:station:wmo:42043:1,2015-03-03T16:00:00Z,28.9818,-94.9186,15.0,11144222 
TABS,ioos:station:wmo:42043:1,2015-03-03T16:30:00Z,28.9818,-94.9186,15.6,11144222 
TABS,ioos:station:wmo:42043:1,2015-03-03T17:00:00Z,28.9818,-94.9186,15.7,11144222 
TABS,ioos:station:wmo:42043:1,2015-03-03T17:30:00Z,28.9818,-94.9186,16.1,11144222 
TABS,ioos:station:wmo:42043:1,2015-03-03T18:00:00Z,28.9818,-94.9186,16.1,11144222 
TABS,ioos:station:wmo:42043:1,2015-03-03T18:30:00Z,28.9818,-94.9186,15.9,11144222 
TABS,ioos:station:wmo:42043:1,2015-03-03T19:00:00Z,28.9818,-94.9186,15.9,11144222 
TABS,ioos:station:wmo:42043:1,2015-03-03T19:30:00Z,28.9818,-94.9186,16.0,11144222 
TABS,ioos:station:wmo:42043:1,2015-03-03T20:00:00Z,28.9818,-94.9186,16.0,11144222 
TABS,ioos:station:wmo:42043:1,2015-03-03T20:30:00Z,28.9818,-94.9186,16.3,11144222 
TABS,ioos:station:wmo:42043:1,2015-03-03T21:00:00Z,28.9818,-94.9186,16.2,11144222 
TABS,ioos:station:wmo:42043:1,2015-03-03T21:30:00Z,28.9818,-94.9186,16.2,11144222 
TABS,ioos:station:wmo:42043:1,2015-03-03T22:00:00Z,28.9818,-94.9186,16.4,11144222 
TABS,ioos:station:wmo:42043:1,2015-03-03T22:30:00Z,28.9818,-94.9186,16.2,11144222 
TABS,ioos:station:wmo:42043:1,2015-03-03T23:00:00Z,28.9818,-94.9186,15.9,11144222 
TABS,ioos:station:wmo:42043:1,2015-03-03T23:30:00Z,28.9818,-94.9186,16.9,11144222 
TABS,ioos:station:wmo:42043:1,2015-03-04T00:00:00Z,28.9818,-94.9186,16.7,11144222 
TABS,ioos:station:wmo:42043:1,2015-03-04T00:30:00Z,28.9818,-94.9186,16.5,11144222 
TABS,ioos:station:wmo:42043:1,2015-03-04T01:00:00Z,28.9818,-94.9186,16.0,11144222 
TABS,ioos:station:wmo:42043:1,2015-03-04T01:30:00Z,28.9818,-94.9186,15.9,11144222 
TABS,ioos:station:wmo:42043:1,2015-03-04T02:00:00Z,28.9818,-94.9186,16.1,11144222 
TABS,ioos:station:wmo:42043:1,2015-03-04T02:30:00Z,28.9818,-94.9186,16.8,11144222 
TABS,ioos:station:wmo:42043:1,2015-03-04T03:00:00Z,28.9818,-94.9186,16.4,11144222 
TABS,ioos:station:wmo:42043:1,2015-03-04T03:30:00Z,28.9818,-94.9186,16.4,11144222 
TABS,ioos:station:wmo:42043:1,2015-03-04T04:00:00Z,28.9818,-94.9186,17.3,11144222 
TABS,ioos:station:wmo:42043:1,2015-03-04T04:30:00Z,28.9818,-94.9186,16.1,11144222 
TABS,ioos:station:wmo:42043:1,2015-03-04T05:00:00Z,28.9818,-94.9186,16.0,11144222 
TABS,ioos:station:wmo:42043:1,2015-03-04T05:30:00Z,28.9818,-94.9186,16.2,11144222 
TABS,ioos:station:wmo:42043:1,2015-03-04T06:00:00Z,28.9818,-94.9186,15.9,11144222 
TABS,ioos:station:wmo:42043:1,2015-03-04T06:30:00Z,28.9818,-94.9186,15.9,11144222 
TABS,ioos:station:wmo:42043:1,2015-03-04T07:00:00Z,28.9818,-94.9186,15.9,11144222 
TABS,ioos:station:wmo:42043:1,2015-03-04T07:30:00Z,28.9818,-94.9186,15.9,11144222 
TABS,ioos:station:wmo:42043:1,2015-03-04T08:00:00Z,28.9818,-94.9186,15.9,11144222 
TABS,ioos:station:wmo:42043:1,2015-03-04T08:30:00Z,28.9818,-94.9186,16.0,11144222 
TABS,ioos:station:wmo:42043:1,2015-03-04T09:00:00Z,28.9818,-94.9186,16.1,11144222 
TABS,ioos:station:wmo:42043:1,2015-03-04T09:30:00Z,28.9818,-94.9186,16.1,11144222 
TABS,ioos:station:wmo:42043:1,2015-03-04T10:00:00Z,28.9818,-94.9186,16.2,11144222 
TABS,ioos:station:wmo:42043:1,2015-03-04T10:30:00Z,28.9818,-94.9186,16.2,11144222 
TABS,ioos:station:wmo:42043:1,2015-03-04T11:00:00Z,28.9818,-94.9186,16.3,11144222 
TABS,ioos:station:wmo:42043:1,2015-03-04T11:30:00Z,28.9818,-94.9186,15.5,11144222 
TABS,ioos:station:wmo:42043:1,2015-03-04T12:00:00Z,28.9818,-94.9186,15.3,11144222 
TABS,ioos:station:wmo:42043:1,2015-03-04T12:30:00Z,28.9818,-94.9186,16.3,11144222 
TABS,ioos:station:wmo:42043:1,2015-03-04T13:00:00Z,28.9818,-94.9186,15.9,11144222 
TABS,ioos:station:wmo:42043:1,2015-03-04T13:30:00Z,28.9818,-94.9186,15.7,11144222 
TABS,ioos:station:wmo:42043:1,2015-03-04T14:00:00Z,28.9818,-94.9186,16.1,11144222 
TABS,ioos:station:wmo:42043:1,2015-03-04T14:30:00Z,28.9818,-94.9186,16.4,11144222 
TABS,ioos:station:wmo:42043:1,2015-03-04T15:00:00Z,28.9818,-94.9186,16.6,11144222 
TABS,ioos:station:wmo:42043:1,2015-03-04T15:30:00Z,28.9818,-94.9186,16.2,11144222 
TABS,ioos:station:wmo:42043:1,2015-03-04T16:00:00Z,28.9818,-94.9186,16.8,11144222 
TABS,ioos:station:wmo:42043:1,2015-03-04T16:30:00Z,28.9818,-94.9186,17.1,11144222 
TABS,ioos:station:wmo:42043:1,2015-03-04T17:00:00Z,28.9818,-94.9186,18.0,11144222 
TABS,ioos:station:wmo:42043:1,2015-03-04T17:30:00Z,28.9818,-94.9186,17.2,11144222 
TABS,ioos:station:wmo:42043:1,2015-03-04T18:00:00Z,28.9818,-94.9186,17.0,11144222 
TABS,ioos:station:wmo:42043:1,2015-03-04T18:30:00Z,28.9818,-94.9186,16.6,11144222 
TABS,ioos:station:wmo:42043:1,2015-03-04T19:00:00Z,28.9818,-94.9186,16.6,11144222 
TABS,ioos:station:wmo:42043:1,2015-03-04T19:30:00Z,28.9818,-94.9186,16.8,11144222 
TABS,ioos:station:wmo:42043:1,2015-03-04T20:00:00Z,28.9818,-94.9186,16.7,11144222 
TABS,ioos:station:wmo:42043:1,2015-03-04T20:30:00Z,28.9818,-94.9186,16.6,11144222 
TABS,ioos:station:wmo:42043:1,2015-03-04T21:00:00Z,28.9818,-94.9186,16.6,11144222 
TABS,ioos:station:wmo:42043:1,2015-03-04T21:30:00Z,28.9818,-94.9186,16.4,11144222 
TABS,ioos:station:wmo:42043:1,2015-03-04T22:00:00Z,28.9818,-94.9186,16.5,11144222 
TABS,ioos:station:wmo:42043:1,2015-03-04T22:30:00Z,28.9818,-94.9186,16.4,11144222 
TABS,ioos:station:wmo:42043:1,2015-03-04T23:00:00Z,28.9818,-94.9186,16.2,11144222 
TABS,ioos:station:wmo:42043:1,2015-03-04T23:30:00Z,28.9818,-94.9186,16.4,11144222 
TABS,ioos:station:wmo:42043:1,2015-03-05T00:00:00Z,28.9818,-94.9186,16.4,11144222 
TABS,ioos:station:wmo:42043:1,2015-03-05T00:30:00Z,28.9818,-94.9186,16.9,11144222 
TABS,ioos:station:wmo:42043:1,2015-03-05T01:00:00Z,28.9818,-94.9186,16.7,11144222 
TABS,ioos:station:wmo:42043:1,2015-03-05T01:30:00Z,28.9818,-94.9186,16.9,11144222 
TABS,ioos:station:wmo:42043:1,2015-03-05T02:00:00Z,28.9818,-94.9186,16.6,11144222 
TABS,ioos:station:wmo:42043:1,2015-03-05T02:30:00Z,28.9818,-94.9186,16.4,11144222 
TABS,ioos:station:wmo:42043:1,2015-03-05T03:00:00Z,28.9818,-94.9186,16.7,11144222 
TABS,ioos:station:wmo:42043:1,2015-03-05T03:30:00Z,28.9818,-94.9186,16.6,11144222 
TABS,ioos:station:wmo:42043:1,2015-03-05T04:00:00Z,28.9818,-94.9186,16.9,11144222 
TABS,ioos:station:wmo:42043:1,2015-03-05T04:30:00Z,28.9818,-94.9186,16.5,11144222 
TABS,ioos:station:wmo:42043:1,2015-03-05T05:00:00Z,28.9818,-94.9186,13.3,11144222 
TABS,ioos:station:wmo:42043:1,2015-03-05T05:30:00Z,28.9818,-94.9186,12.8,11144222 
TABS,ioos:station:wmo:42043:1,2015-03-07T00:00:00Z,28.9818,-94.9186,7.9,11144222 
TABS,ioos:station:wmo:42043:1,2015-03-07T00:30:00Z,28.9818,-94.9186,8.1,11144222 
TABS,ioos:station:wmo:42043:1,2015-03-07T01:00:00Z,28.9818,-94.9186,8.4,11144222 
TABS,ioos:station:wmo:42043:1,2015-03-07T01:30:00Z,28.9818,-94.9186,8.8,11144222 
TABS,ioos:station:wmo:42043:1,2015-03-07T02:00:00Z,28.9818,-94.9186,9.2,11144222 
TABS,ioos:station:wmo:42043:1,2015-03-07T02:30:00Z,28.9818,-94.9186,9.4,11144222 
TABS,ioos:station:wmo:42043:1,2015-03-07T03:00:00Z,28.9818,-94.9186,9.6,11144222 
TABS,ioos:station:wmo:42043:1,2015-03-07T03:30:00Z,28.9818,-94.9186,9.7,11144222 
TABS,ioos:station:wmo:42043:1,2015-03-07T04:00:00Z,28.9818,-94.9186,9.9,11144222 
TABS,ioos:station:wmo:42043:1,2015-03-07T04:30:00Z,28.9818,-94.9186,9.8,11144222 
TABS,ioos:station:wmo:42043:1,2015-03-07T05:00:00Z,28.9818,-94.9186,9.8,11144222 
TABS,ioos:station:wmo:42043:1,2015-03-07T05:30:00Z,28.9818,-94.9186,9.9,11144222 
TABS,ioos:station:wmo:42043:1,2015-03-07T06:00:00Z,28.9818,-94.9186,10.1,11144222 
TABS,ioos:station:wmo:42043:1,2015-03-07T06:30:00Z,28.9818,-94.9186,10.2,11144222 
TABS,ioos:station:wmo:42043:1,2015-03-07T07:00:00Z,28.9818,-94.9186,10.1,11144222 
TABS,ioos:station:wmo:42043:1,2015-03-07T07:30:00Z,28.9818,-94.9186,9.9,11144222 
TABS,ioos:station:wmo:42043:1,2015-03-07T08:00:00Z,28.9818,-94.9186,9.9,11144222 
TABS,ioos:station:wmo:42043:1,2015-03-07T08:30:00Z,28.9818,-94.9186,9.9,11144222 
TABS,ioos:station:wmo:42043:1,2015-03-07T09:00:00Z,28.9818,-94.9186,10.0,11144222 
TABS,ioos:station:wmo:42043:1,2015-03-07T09:30:00Z,28.9818,-94.9186,10.2,11144222 
TABS,ioos:station:wmo:42043:1,2015-03-07T10:00:00Z,28.9818,-94.9186,10.3,11144222 
TABS,ioos:station:wmo:42043:1,2015-03-07T10:30:00Z,28.9818,-94.9186,10.3,11144222 
TABS,ioos:station:wmo:42043:1,2015-03-07T11:00:00Z,28.9818,-94.9186,10.3,11144222 
TABS,ioos:station:wmo:42043:1,2015-03-07T11:30:00Z,28.9818,-94.9186,10.1,11144222 
TABS,ioos:station:wmo:42043:1,2015-03-07T12:00:00Z,28.9818,-94.9186,10.2,11144222 
TABS,ioos:station:wmo:42043:1,2015-03-07T12:30:00Z,28.9818,-94.9186,10.2,11144222 
TABS,ioos:station:wmo:42043:1,2015-03-07T13:00:00Z,28.9818,-94.9186,10.2,11144222 
TABS,ioos:station:wmo:42043:1,2015-03-07T13:30:00Z,28.9818,-94.9186,10.2,11144222 
TABS,ioos:station:wmo:42043:1,2015-03-07T14:00:00Z,28.9818,-94.9186,10.7,11144222 
TABS,ioos:station:wmo:42043:1,2015-03-07T14:30:00Z,28.9818,-94.9186,10.4,11144222 
TABS,ioos:station:wmo:42043:1,2015-03-07T15:00:00Z,28.9818,-94.9186,10.5,11144222 
TABS,ioos:station:wmo:42043:1,2015-03-07T15:30:00Z,28.9818,-94.9186,10.4,11144222 
TABS,ioos:station:wmo:42043:1,2015-03-07T16:00:00Z,28.9818,-94.9186,10.6,11144222 
TABS,ioos:station:wmo:42043:1,2015-03-07T16:30:00Z,28.9818,-94.9186,10.8,11144222 
TABS,ioos:station:wmo:42043:1,2015-03-07T17:00:00Z,28.9818,-94.9186,10.7,11144222 
TABS,ioos:station:wmo:42043:1,2015-03-07T17:30:00Z,28.9818,-94.9186,10.6,11144222 
TABS,ioos:station:wmo:42043:1,2015-03-07T18:00:00Z,28.9818,-94.9186,10.6,11144222 
TABS,ioos:station:wmo:42043:1,2015-03-07T18:30:00Z,28.9818,-94.9186,10.5,11144222 
TABS,ioos:station:wmo:42043:1,2015-03-07T19:00:00Z,28.9818,-94.9186,10.5,11144222 
TABS,ioos:station:wmo:42043:1,2015-03-07T19:30:00Z,28.9818,-94.9186,10.6,11144222 
TABS,ioos:station:wmo:42043:1,2015-03-07T20:00:00Z,28.9818,-94.9186,10.6,11144222 
TABS,ioos:station:wmo:42043:1,2015-03-07T20:30:00Z,28.9818,-94.9186,10.7,11144222 
TABS,ioos:station:wmo:42043:1,2015-03-07T21:00:00Z,28.9818,-94.9186,10.9,11144222 
TABS,ioos:station:wmo:42043:1,2015-03-07T21:30:00Z,28.9818,-94.9186,11.0,11144222 
TABS,ioos:station:wmo:42043:1,2015-03-07T22:00:00Z,28.9818,-94.9186,10.9,11144222 
TABS,ioos:station:wmo:42043:1,2015-03-07T22:30:00Z,28.9818,-94.9186,11.0,11144222 
TABS,ioos:station:wmo:42043:1,2015-03-07T23:00:00Z,28.9818,-94.9186,11.1,11144222 
TABS,ioos:station:wmo:42043:1,2015-03-07T23:30:00Z,28.9818,-94.9186,11.2,11144222 
TABS,ioos:station:wmo:42043:1,2015-03-08T00:00:00Z,28.9818,-94.9186,11.3,11144222 
TABS,ioos:station:wmo:42043:1,2015-03-08T00:30:00Z,28.9818,-94.9186,11.5,11144222 
TABS,ioos:station:wmo:42043:1,2015-03-08T01:00:00Z,28.9818,-94.9186,11.8,11144222 
TABS,ioos:station:wmo:42043:1,2015-03-08T01:30:00Z,28.9818,-94.9186,11.9,11144222 
TABS,ioos:station:wmo:42043:1,2015-03-08T02:00:00Z,28.9818,-94.9186,12.1,11144222 
TABS,ioos:station:wmo:42043:1,2015-03-08T02:30:00Z,28.9818,-94.9186,12.3,11144222 
TABS,ioos:station:wmo:42043:1,2015-03-08T03:00:00Z,28.9818,-94.9186,12.3,11144222 
TABS,ioos:station:wmo:42043:1,2015-03-08T03:30:00Z,28.9818,-94.9186,12.5,11144222 
TABS,ioos:station:wmo:42043:1,2015-03-08T04:00:00Z,28.9818,-94.9186,12.8,11144222 
TABS,ioos:station:wmo:42043:1,2015-03-08T04:30:00Z,28.9818,-94.9186,13.1,11144222 
TABS,ioos:station:wmo:42043:1,2015-03-08T05:00:00Z,28.9818,-94.9186,13.1,11144222 
TABS,ioos:station:wmo:42043:1,2015-03-08T05:30:00Z,28.9818,-94.9186,13.2,11144222 
TABS,ioos:station:wmo:42043:1,2015-03-08T06:00:00Z,28.9818,-94.9186,13.3,11144222 
TABS,ioos:station:wmo:42043:1,2015-03-08T06:30:00Z,28.9818,-94.9186,13.3,11144222 
TABS,ioos:station:wmo:42043:1,2015-03-08T07:00:00Z,28.9818,-94.9186,13.3,11144222 
TABS,ioos:station:wmo:42043:1,2015-03-08T07:30:00Z,28.9818,-94.9186,13.2,11144222 
TABS,ioos:station:wmo:42043:1,2015-03-08T08:00:00Z,28.9818,-94.9186,12.4,11144222 
TABS,ioos:station:wmo:42043:1,2015-03-08T08:30:00Z,28.9818,-94.9186,11.8,11144222 
TABS,ioos:station:wmo:42043:1,2015-03-08T09:00:00Z,28.9818,-94.9186,11.7,11144222 
TABS,ioos:station:wmo:42043:1,2015-03-08T09:30:00Z,28.9818,-94.9186,11.4,11144222 
TABS,ioos:station:wmo:42043:1,2015-03-08T10:00:00Z,28.9818,-94.9186,11.6,11144222 
TABS,ioos:station:wmo:42043:1,2015-03-08T10:30:00Z,28.9818,-94.9186,11.7,11144222 
TABS,ioos:station:wmo:42043:1,2015-03-08T11:00:00Z,28.9818,-94.9186,11.7,11144222 
TABS,ioos:station:wmo:42043:1,2015-03-08T11:30:00Z,28.9818,-94.9186,11.7,11144222 
TABS,ioos:station:wmo:42043:1,2015-03-08T12:00:00Z,28.9818,-94.9186,11.8,11144222 
TABS,ioos:station:wmo:42043:1,2015-03-08T12:30:00Z,28.9818,-94.9186,11.9,11144222 
TABS,ioos:station:wmo:42043:1,2015-03-08T13:00:00Z,28.9818,-94.9186,11.7,11144222 
TABS,ioos:station:wmo:42043:1,2015-03-08T13:30:00Z,28.9818,-94.9186,12.0,11144222 
TABS,ioos:station:wmo:42043:1,2015-03-08T14:00:00Z,28.9818,-94.9186,12.4,11144222 
TABS,ioos:station:wmo:42043:1,2015-03-08T14:30:00Z,28.9818,-94.9186,12.5,11144222 
TABS,ioos:station:wmo:42043:1,2015-03-08T15:00:00Z,28.9818,-94.9186,12.5,11144222 
TABS,ioos:station:wmo:42043:1,2015-03-08T15:30:00Z,28.9818,-94.9186,12.5,11144222 
TABS,ioos:station:wmo:42043:1,2015-03-08T16:00:00Z,28.9818,-94.9186,12.7,11144222 
TABS,ioos:station:wmo:42043:1,2015-03-08T16:30:00Z,28.9818,-94.9186,13.0,11144222 
TABS,ioos:station:wmo:42043:1,2015-03-08T17:00:00Z,28.9818,-94.9186,13.0,11144222 
TABS,ioos:station:wmo:42043:1,2015-03-08T17:30:00Z,28.9818,-94.9186,13.0,11144222 